PI1GDA-1 Weather Reports


time (UTC)temp
C
wind
direction
speed
KPH
gust
KPH
rain 1hr
cm
rain 24hr
cm
rain mn
cm
humidity
%
barometer
mb
20260507061943 9 0 3.2 17.7 0.00 0.00 0.00 85 1016.2
20260507060942 8 338 4.8 17.7 0.00 0.00 0.00 86 1016.2
20260507055939 8 22 4.8 17.7 0.00 0.00 0.00 86 1016.1
20260507054938 8 22 3.2 17.7 0.00 0.00 0.00 87 1016.1
20260507053937 8 22 4.8 17.7 0.00 0.00 0.00 87 1016.0
20260507052936 7 22 3.2 17.7 0.00 0.00 0.00 87 1016.0
20260507051933 7 0 3.2 17.7 0.00 0.00 0.00 87 1015.8
20260507050933 7 0 1.6 17.7 0.00 0.00 0.00 87 1015.9
20260507045931 7 338 1.6 17.7 0.00 0.00 0.00 86 1015.7
20260507044930 7 0 3.2 17.7 0.00 0.00 0.00 86 1015.5
20260507043928 7 22 3.2 17.7 0.00 0.00 0.00 86 1015.4
20260507042927 7 0 1.6 17.7 0.00 0.00 0.00 86 1015.4
20260507041925 7 22 1.6 17.7 0.00 0.00 0.00 86 1015.3
20260507040924 7 0 3.2 17.7 0.00 0.00 0.00 86 1015.2
20260507035919 7 338 3.2 17.7 0.00 0.00 0.00 86 1015.1
20260507034917 7 338 1.6 17.7 0.00 0.00 0.00 86 1015.1
20260507033917 7 45 1.6 17.7 0.00 0.00 0.00 86 1015.0
20260507032915 7 338 1.6 17.7 0.00 0.00 0.00 86 1015.0
20260507031913 7 338 1.6 17.7 0.00 0.00 0.00 86 1015.0
20260507030911 7 22 1.6 17.7 0.00 0.00 0.00 86 1015.0
20260507025911 7 22 3.2 17.7 0.00 0.00 0.00 86 1014.9
20260507024910 7 22 3.2 17.7 0.00 0.00 0.00 86 1014.9
20260507023909 7 0 3.2 17.7 0.00 0.00 0.00 86 1014.9
20260507022908 7 0 1.6 17.7 0.00 0.00 0.00 85 1014.9
20260507021906 7 22 1.6 17.7 0.00 0.00 0.00 85 1014.8
20260507020904 7 22 1.6 17.7 0.00 0.00 0.00 85 1014.7
20260507015904 8 338 3.2 17.7 0.00 0.00 0.00 85 1014.7
20260507014903 10 45 4.8 17.7 0.00 0.00 0.00 78 1013.9
20260507013901 8 338 1.6 17.7 0.00 0.00 0.00 85 1014.7
20260507012900 8 22 3.2 17.7 0.00 0.00 0.00 84 1014.5
20260507011859 8 0 1.6 17.7 0.00 0.00 0.00 85 1014.4
20260507010858 8 338 3.2 17.7 0.00 0.00 0.00 84 1014.4
20260507005857 8 22 3.2 17.7 0.00 0.00 0.00 84 1014.3
20260507004857 8 22 3.2 17.7 0.00 0.00 0.00 84 1014.3
20260507003854 9 22 3.2 17.7 0.00 0.00 0.00 84 1014.3
20260507002853 9 45 4.8 17.7 0.00 0.00 0.00 83 1014.2
20260507001852 9 338 4.8 17.7 0.00 0.00 0.00 83 1014.1
20260507000852 9 45 4.8 17.7 0.00 0.00 0.00 83 1014.2
20260506235851 9 45 4.8 17.7 0.00 0.00 0.00 82 1014.0
20260506234850 10 0 4.8 17.7 0.00 0.00 0.00 81 1014.0
20260506233848 10 45 4.8 17.7 0.00 0.00 0.00 81 1013.9
20260506232848 10 22 4.8 17.7 0.00 0.00 0.00 80 1013.9
20260506231848 10 45 4.8 17.7 0.00 0.00 0.00 79 1013.9
20260506230846 10 45 4.8 17.7 0.00 0.00 0.00 78 1013.9
20260506225846 11 22 6.4 17.7 0.00 0.00 0.00 78 1013.8
20260506224845 11 45 8.0 17.7 0.00 0.00 0.00 77 1013.8
20260506223845 11 45 6.4 17.7 0.00 0.00 0.00 77 1013.7
20260506222845 11 22 6.4 17.7 0.00 0.00 0.00 76 1013.7
20260506221844 11 22 6.4 17.7 0.00 0.00 0.00 76 1013.7
20260506220843 11 0 6.4 17.7 0.00 0.00 0.00 75 1013.6
20260506215841 11 338 6.4 30.6 0.00 0.00 0.00 75 1013.6
20260506214840 11 315 4.8 30.6 0.00 0.00 0.00 74 1013.5
20260506213840 11 0 6.4 30.6 0.00 0.00 0.00 74 1013.3
20260506212839 11 45 4.8 30.6 0.00 0.00 0.00 73 1013.4
20260506211838 12 338 6.4 30.6 0.00 0.00 0.00 73 1013.2
20260506210837 12 22 6.4 30.6 0.00 0.00 0.00 73 1013.1
20260506205836 12 22 6.4 30.6 0.00 0.00 0.00 73 1013.0
20260506204835 12 22 4.8 30.6 0.00 0.00 0.00 73 1012.9
20260506203835 12 22 6.4 30.6 0.00 0.00 0.00 74 1012.9
20260506202834 12 0 4.8 30.6 0.00 0.00 0.00 74 1012.9
20260506201832 12 0 4.8 30.6 0.00 0.00 0.00 74 1012.9
20260506200832 12 45 4.8 30.6 0.00 0.00 0.00 74 1012.7
20260506195830 12 45 6.4 30.6 0.00 0.00 0.00 74 1012.7
20260506194830 12 45 8.0 30.6 0.00 0.00 0.00 73 1012.6
20260506193830 12 45 6.4 30.6 0.00 0.00 0.00 72 1012.6
20260506192829 12 22 4.8 30.6 0.00 0.00 0.00 70 1012.4
20260506191827 12 45 4.8 30.6 0.00 0.00 0.00 70 1012.3
20260506190826 12 45 4.8 30.6 0.00 0.00 0.00 69 1012.2
20260506185825 12 22 4.8 30.6 0.00 0.00 0.00 69 1012.0
20260506184825 13 45 4.8 30.6 0.00 0.00 0.00 68 1011.9
20260506183824 13 45 8.0 30.6 0.00 0.00 0.00 67 1011.8
20260506182823 13 68 6.4 30.6 0.00 0.00 0.00 66 1011.7
20260506181821 13 90 4.8 30.6 0.00 0.00 0.00 65 1011.6
20260506180821 13 22 4.8 30.6 0.00 0.00 0.00 64 1011.4
20260506175818 13 45 4.8 30.6 0.00 0.00 0.00 64 1011.4
20260506174816 13 45 4.8 30.6 0.00 0.00 0.00 63 1011.2
20260506173816 13 45 4.8 30.6 0.00 0.00 0.00 62 1011.0
20260506172814 14 0 3.2 30.6 0.00 0.00 0.00 62 1011.0
20260506171812 14 22 4.8 30.6 0.00 0.00 0.00 62 1010.9
20260506170811 14 135 3.2 30.6 0.00 0.00 0.00 61 1010.9
20260506165810 14 90 4.8 30.6 0.00 0.00 0.00 62 1010.8
20260506164810 14 68 6.4 30.6 0.00 0.00 0.00 62 1010.9
20260506163804 14 45 6.4 30.6 0.00 0.00 0.00 61 1010.9
20260506162803 14 22 8.0 30.6 0.00 0.00 0.00 61 1010.9
20260506161802 14 90 8.0 30.6 0.00 0.00 0.00 60 1010.8
20260506160802 14 112 8.0 30.6 0.00 0.00 0.00 59 1010.8
20260506155801 14 90 8.0 30.6 0.00 0.00 0.00 60 1010.9
20260506154759 14 45 8.0 30.6 0.00 0.00 0.00 60 1010.9
20260506153759 14 112 6.4 30.6 0.00 0.00 0.00 60 1010.8
20260506152758 14 45 6.4 30.6 0.00 0.00 0.00 60 1010.9
20260506151754 14 90 8.0 30.6 0.00 0.00 0.00 61 1010.9
20260506150753 14 90 8.0 30.6 0.00 0.00 0.00 59 1010.8
20260506145752 14 45 9.7 30.6 0.00 0.00 0.00 59 1010.7
20260506144751 14 90 11.3 30.6 0.00 0.00 0.00 60 1010.7
20260506143750 14 112 8.0 30.6 0.00 0.00 0.00 58 1010.8
20260506142749 14 90 11.3 30.6 0.00 0.00 0.00 58 1010.7
20260506141749 15 90 8.0 30.6 0.00 0.00 0.00 57 1010.8
20260506140748 15 45 8.0 30.6 0.00 0.00 0.00 55 1010.8
20260506135747 15 45 8.0 30.6 0.00 0.00 0.00 55 1010.7
20260506134746 15 68 9.7 30.6 0.00 0.00 0.00 55 1010.7
20260506133746 15 68 12.9 30.6 0.00 0.00 0.00 56 1010.6
20260506132744 15 68 12.9 30.6 0.00 0.00 0.00 56 1010.5
20260506131743 15 112 11.3 30.6 0.00 0.00 0.00 58 1010.4
20260506130743 15 68 11.3 30.6 0.00 0.00 0.00 57 1010.4
20260506125743 15 68 9.7 30.6 0.00 0.00 0.00 59 1010.3
20260506124742 15 112 9.7 30.6 0.00 0.00 0.00 60 1010.2
20260506123741 15 45 11.3 30.6 0.00 0.00 0.00 57 1010.3
20260506122741 16 68 11.3 30.6 0.00 0.00 0.00 58 1010.1
20260506121740 16 45 8.0 30.6 0.00 0.00 0.00 59 1010.2
20260506120740 15 0 9.7 30.6 0.00 0.00 0.00 62 1010.2
20260506115740 15 45 11.3 30.6 0.00 0.00 0.00 62 1010.2
20260506114739 15 68 12.9 30.6 0.00 0.00 0.00 62 1010.2
20260506113736 16 45 12.9 30.6 0.00 0.00 0.00 61 1010.3
20260506112735 15 22 12.9 30.6 0.00 0.00 0.00 62 1010.2
20260506111735 15 112 11.3 30.6 0.00 0.00 0.00 62 1010.2
20260506110734 15 68 11.3 29.0 0.00 0.00 0.00 62 1010.2
20260506105733 14 22 11.3 29.0 0.00 0.00 0.00 65 1010.2
20260506104732 15 22 11.3 29.0 0.00 0.00 0.00 67 1010.2
20260506103731 15 68 12.9 29.0 0.00 0.00 0.00 67 1010.1
20260506102730 14 45 12.9 29.0 0.00 0.00 0.00 69 1010.2
20260506101729 14 22 11.3 29.0 0.00 0.00 0.00 69 1010.1
20260506100729 14 338 11.3 29.0 0.00 0.00 0.00 69 1010.0
20260506095728 15 68 12.9 29.0 0.00 0.00 0.00 67 1010.0
20260506094728 15 68 12.9 29.0 0.00 0.00 0.00 66 1009.9
20260506093728 15 45 9.7 24.1 0.00 0.00 0.00 64 1009.8
20260506092727 15 45 8.0 24.1 0.00 0.00 0.00 66 1009.8
20260506091725 15 22 8.0 24.1 0.00 0.00 0.00 68 1009.7
20260506090724 15 0 9.7 24.1 0.00 0.00 0.00 69 1009.7
20260506085722 14 45 9.7 22.5 0.00 0.00 0.00 72 1009.7